Regional Weather Roundup
Issued by NWS

Home | Current Version | Previous Version | Text Only | Print | Product List | Glossary Off
Versions: 1 2 3 4 5 6 7 8 9 10 11 12 13 14 15 16 17 18 19 20 21 22 23 24 25 26 27 28 29 30 31 32 33 34 35 36 37 38 39 40 41 42 43 44 45 46 47 48 49 50

000
ASUS43 KMKX 190111
RWRWI

WISCONSIN REGIONAL WEATHER ROUNDUP
NATIONAL WEATHER SERVICE MILWAUKEE/SULLIVAN WI
700 PM CST SAT FEB 18 2017

NOTE: "FAIR" INDICATES FEW OR NO CLOUDS BELOW 12,000 FEET WITH NO
SIGNIFICANT WEATHER AND/OR OBSTRUCTIONS TO VISIBILITY.

WIZ001-002-006>008-014>016-023>028-190200-
NORTHWEST WISCONSIN

CITY           SKY/WX    TMP DP  RH WIND       PRES   REMARKS
SUPERIOR ARPT  CLOUDY    47  30  51 W9        29.75R
ASHLAND        PTCLDY    47  29  49 SW8       29.74R
HAYWARD        CLOUDY    41  28  60 S5        29.77R
SIREN          CLOUDY    48  33  55 W5        29.80R
CUMBERLAND     PTCLDY    41  32  70 W5        29.79S
RICE LAKE      PTCLDY    39  32  75 CALM      29.81R
CHETEK         PTCLDY    42  34  73 CALM      29.79S
LADYSMITH      PTCLDY    47  31  55 SW5       29.79S
EAU CLAIRE     CLOUDY    44  35  70 CALM      29.80R
MENOMONIE      PTCLDY    43  34  69 CALM      29.80S
NEW RICHMOND   CLOUDY    43  32  64 SW3       29.81R
OSCEOLA        MOCLDY    41  32  72 CALM      29.83R
$$

WIZ003>005-009-010-017-018-190200-
NORTH CENTRAL WISCONSIN

CITY           SKY/WX    TMP DP  RH WIND       PRES   REMARKS
MANITOWISH WTR PTCLDY    45  29  53 W7        29.74R
ARBOR VITAE    CLEAR     46  29  52 W6        29.75R
WOODRUFF       CLEAR     46  29  52 W6        29.75R
RHINELANDER    CLEAR     45  28  51 W8        29.75R
EAGLE RIVER    CLEAR     40  27  59 W8        29.72S WCI  34
LAND O LAKES   CLEAR     34  26  71 CALM      29.73R
PHILLIPS       PTCLDY    44  30  58 SW3       29.76R
TOMAHAWK       PTCLDY    46  26  46 W3        29.77R
MEDFORD        PTCLDY    42  32  67 W6        29.77R
MERRILL        NOT AVBL
$$

WIZ029-030-035-036-043>047-190200-
CENTRAL WISCONSIN

CITY           SKY/WX    TMP DP  RH WIND       PRES   REMARKS
WAUSAU         PTCLDY    44  31  60 NW5       29.76R
MOSINEE        MOCLDY    45  32  61 W8        29.78R
MARSHFIELD     PTCLDY    44  30  57 W7        29.77R
STEVENS POINT  MOCLDY    46  29  51 W5        29.78S
WAUPACA        PTCLDY    46  29  51 CALM      29.78R
WAUTOMA        PTCLDY    39  30  70 CALM      29.79R
WISC RAPIDS    PTCLDY    49  28  44 W5        29.80R
CAMP DOUGLAS   CLEAR     37  29  72 CALM      29.80R
$$

WIZ011>013-019>022-031-037>040-048>050-190200-
NORTHEAST WISCONSIN

CITY           SKY/WX    TMP DP  RH WIND       PRES   REMARKS
ANTIGO         CLEAR     40  31  70 W8        29.75R WCI  34
SHAWANO        CLEAR     47  32  55 SW3       29.75R
OCONTO         CLEAR     46  31  57 W7        29.72R
STURGEON BAY   CLEAR     47  33  58 W12       29.72R
GREEN BAY      CLEAR     47  33  58 W7        29.75R
MANITOWOC      CLEAR     48  32  53 MISG      29.75R
APPLETON       PTCLDY    43  27  52 W10       29.75R
CLINTONVILLE   CLEAR     45  30  57 W5        29.76R
OSHKOSH        CLEAR     48  30  49 W6        29.77R
$$

WIZ032>034-041-042-053>061-190200-
SOUTHWEST WISCONSIN

CITY           SKY/WX    TMP DP  RH WIND       PRES   REMARKS
LA CROSSE      CLEAR     41  30  65 CALM      29.81R
SPARTA         CLEAR     38  30  71 CALM      29.82R
VIROQUA        CLEAR     47  32  56 CALM      29.81R
BOSCOBEL       CLEAR     44  36  73 CALM      29.81R
PRAIRIE DU CHI CLEAR     44  35  71 CALM      29.81R
PLATTEVILLE    CLEAR     52  41  66 NW7       29.81R
$$

WIZ056-057-062-063-064-067-068-190200-
SOUTH CENTRAL WISCONSIN

CITY           SKY/WX    TMP DP  RH WIND       PRES   REMARKS
REEDSBURG      CLEAR     46  32  59 CALM      29.79S
BARABOO/DELLS  CLEAR     42  27  56 CALM      29.79S
LONE ROCK      CLEAR     43  35  73 CALM      29.80R
MINERAL POINT  CLEAR     52  37  58 CALM      29.80S
MADISON        PTCLDY    42  35  76 CALM      29.79R
MIDDLETON      CLEAR     41  37  86 CALM      29.80S
WATERTOWN      CLEAR     37  33  83 CALM      29.79R
MONROE         CLEAR     52  39  62 NW3       29.80R
JANESVILLE     CLEAR     46  37  71 CALM      29.79R
$$

WIZ051-052-058>065-066-070>072-190200-
SOUTHEAST WISCONSIN

CITY           SKY/WX    TMP DP  RH WIND       PRES   REMARKS
MILWAUKEE      CLEAR     56  39  53 W3        29.79R
WAUKESHA       CLEAR     43  36  75 SW3       29.80R
MILWAUKEE/TIMM CLEAR     48  36  61 CALM      29.79R
RACINE         CLEAR     53  36  52 NW6       29.80R
KENOSHA        CLEAR     55  38  52 N5        29.78R
FOND DU LAC    CLEAR     42  29  59 SW6       29.78R
SHEBOYGAN      CLEAR     44  32  62 SW6       29.76R
WEST BEND      CLEAR     43  34  70 CALM      29.78R
JUNEAU         CLEAR     46  36  68 SW3       29.79R
$$

LSZ147-162-190200-
LAKE SUPERIOR

STATION/POSITION TIME  TEMP    WIND        PRES    WAVE
                       AIR SEA DIR/SP/G            HT/PER
                 (UTC) (F)     (DEG/KT/KT) (MB)    (FT/S)
DEVILS ISLAND    0000   42     230/ 17/ 19 1005.7R
PORT WING        0040   51     220/  8/ 11 1007.1R
SAXON HARBOR     2330   43     210/  5/  6 1005.8R
$$

LMZ867-665-643>646-190200-
LAKE MICHIGAN

STATION/POSITION TIME  TEMP    WIND        PRES    WAVE
                       AIR SEA DIR/SP/G            HT/PER
                 (UTC) (F)     (DEG/KT/KT) (MB)    (FT/S)
CHAMBERS ISLAND  0040   47     200/  8/ 15 1005.4R
NORTHPORT PIER   0040   51     230/  5/  8 1005.4R
SISTER BAY       0035   49     250/ 12/ 13   N/A
KEWAUNEE LAKESHO 0048   49     290/  7/ 11 1006.2R
SHEBOYGAN LAKESH 0100   53     260/  6/  8 1007.7R
PORT WASHINGTON  0030   49     260/  3/  3 1009.1R
MILWAUKEE LAKESH 0050   57     280/  6/  8   N/A
KENOSHA   LAKESH 0000   50        CALM     1007.8
$$

TC  - TEMPERATURE IN CELSIUS
VSB - VISIBILITY IN STATUTE MILES
WCI - WIND CHILL INDEX
HX  - HEAT INDEX





USA.gov is the U.S. government's official web portal to all federal, state and local government web resources and services.